Weather History for Seward, AK

Change the Weather History Date:

Thursday, July 18, 2013

  Actual Average Record
Temperature  
Mean Temperature 70 °F -  
Max Temperature 81 °F 62 °F 81 °F (2013)
Min Temperature 59 °F 50 °F 42 °F (2012)
Cooling Degree Days 4    
Growing Degree Days 20 (Base 50)    
Moisture  
Dew Point 55 °F    
Average Humidity 67    
Maximum Humidity 90    
Minimum Humidity 43    
Precipitation  
Precipitation 0.00 in - - ()
Sea Level Pressure  
Sea Level Pressure 30.11 in    
Wind  
Wind Speed 10 mph (NE)    
Max Wind Speed 16 mph    
Max Gust Speed 22 mph    
Visibility 10 miles    
Events      
Averages and records for this station are not official NWS values.
T = Trace of Precipitation, MM = Missing Value Source: NWS Daily Summary

Daily Weather History Graph

Daily Weather History Graph

Search for Another Location

Airport:

Trip Planner

Search our weather history database for the weather conditions in past years. The results will help you decide how hot, cold, wet, or windy it might be!

Date:

Astronomy

Jul. 18, 2013 Rise Set
Actual Time 5:07 AM AKDT 10:59 PM AKDT
Civil Twilight 3:51 AM AKDT 12:13 AM AKDT
Nautical Twilight Sun does not rise Sun does not rise
Astronomical Twilight Sun does not rise Sun does not rise
Moon 6:58 PM AKDT (7/18) 1:24 AM AKDT (7/18)
Length of Visible Light 20h 21m
Length of Day
17h 52m
Waxing Gibbous, 79% of the Moon is Illuminated
Jul 18
Waxing Gibbous
Jul 22
Full
Jul 29
Last Quarter
Aug 6
New
Aug 14
First Quarter

Hourly Weather History & Observations

Time (AKDT) Temp. Heat Index Dew Point Humidity Pressure Visibility Wind Dir Wind Speed Gust Speed Precip Events Conditions
12:53 AM 66.0 °F - 55.0 °F 68% 30.07 in 10.0 mi North 11.5 mph - N/A   Clear
1:53 AM 64.0 °F - 54.0 °F 70% 30.09 in 10.0 mi North 12.7 mph 20.7 mph N/A   Clear
2:53 AM 64.0 °F - 54.0 °F 70% 30.09 in 10.0 mi North - - N/A   Clear
3:53 AM 63.0 °F - 54.0 °F 72% 30.09 in 10.0 mi NNE 13.8 mph 19.6 mph N/A   Clear
4:53 AM 63.0 °F - 53.1 °F 70% 30.10 in 10.0 mi NNE 16.1 mph 21.9 mph N/A   Clear
5:53 AM 63.0 °F - 54.0 °F 72% 30.10 in 10.0 mi North 11.5 mph - N/A   Clear
6:53 AM 63.0 °F - 53.1 °F 70% 30.10 in 10.0 mi North 13.8 mph 19.6 mph N/A   Clear
7:53 AM 64.0 °F - 54.0 °F 70% 30.10 in 10.0 mi North 11.5 mph - N/A   Clear
8:53 AM 68.0 °F - 55.0 °F 63% 30.11 in 10.0 mi NNE 11.5 mph 19.6 mph N/A   Clear
9:53 AM 70.0 °F - 55.0 °F 59% 30.11 in 10.0 mi NNE 10.4 mph - N/A   Clear
10:53 AM 73.0 °F - 55.0 °F 53% 30.10 in 10.0 mi North 12.7 mph - N/A   Clear
11:53 AM 78.1 °F - 55.9 °F 46% 30.09 in 10.0 mi North 8.1 mph - N/A   Clear
12:53 PM 80.1 °F 80.2 °F 55.9 °F 43% 30.09 in 10.0 mi NNE 5.8 mph - N/A   Clear
1:53 PM 69.1 °F - 57.0 °F 65% 30.11 in 10.0 mi Variable 6.9 mph - N/A   Clear
2:53 PM 69.1 °F - 57.0 °F 65% 30.10 in 10.0 mi SSE 6.9 mph - N/A   Clear
3:53 PM 70.0 °F - 55.0 °F 59% 30.11 in 10.0 mi Calm Calm - N/A   Clear
4:53 PM 70.0 °F - 55.0 °F 59% 30.12 in 10.0 mi Calm Calm - N/A   Partly Cloudy
5:53 PM 70.0 °F - 55.9 °F 61% 30.12 in 10.0 mi SE 8.1 mph - N/A   Scattered Clouds
6:53 PM 69.1 °F - 55.9 °F 63% 30.12 in 10.0 mi SSE 5.8 mph - N/A   Clear
7:53 PM 68.0 °F - 55.9 °F 65% 30.12 in 10.0 mi SSE 6.9 mph - N/A   Clear
8:53 PM 63.0 °F - 55.9 °F 78% 30.13 in 10.0 mi SE 3.5 mph - N/A   Scattered Clouds
9:53 PM 61.0 °F - 55.9 °F 83% 30.14 in 10.0 mi SSE 4.6 mph - N/A   Partly Cloudy
10:53 PM 59.0 °F - 55.9 °F 90% 30.15 in 10.0 mi Calm Calm - N/A   Clear
11:53 PM 60.1 °F - 55.9 °F 86% 30.16 in 10.0 mi South 5.8 mph - N/A   Clear